Hoquiam, WA

5:26 AM PDT on October 17, 2017 (GMT -0700)
Bowerman

Weather History for KHQM - February, 2014

Change the Weather History Date:

Saturday, February 1, 2014

  Actual Average Record
Temperature  
Mean Temperature 43 °F 43 °F  
Max Temperature 47 °F 49 °F 59 °F (1962)
Min Temperature 38 °F 38 °F 19 °F (1989)
Degree Days  
Heating Degree Days 22 22  
Month to date heating degree days 22 22  
Cooling Degree Days 0 0  
Month to date cooling degree days 0 0  
Year to date cooling degree days 0 0  
Moisture  
Dew Point 39 °F    
Average Humidity 86    
Maximum Humidity 100    
Minimum Humidity 71    
Precipitation  
Precipitation 0.03 in 0.28 in 1.86 in (1987)
Month to date precipitation 0.03 0.28  
Year to date precipitation 6.53 10.61  
Sea Level Pressure  
Sea Level Pressure 30.14 in    
Wind  
Wind Speed 5 mph (ENE)    
Max Wind Speed 12 mph    
Max Gust Speed 13 mph    
Visibility 6 miles    
Events Rain    
T = Trace of Precipitation, MM = Missing Value Source: NWS Daily Summary

Daily Weather History Graph

Daily Weather History Graph

Search for Another Location

Airport or City:

Trip Planner

Search our weather history database for the weather conditions in past years. The results will help you decide how hot, cold, wet, or windy it might be!

Date:

Astronomy

Feb. 01, 2014 Rise Set
Actual Time 7:40 AM PST 5:18 PM PST
Civil Twilight 7:07 AM PST 5:51 PM PST
Nautical Twilight 6:31 AM PST 6:27 PM PST
Astronomical Twilight 5:55 AM PST 7:03 PM PST
Moon 8:22 AM PST (2/1) 8:14 PM PST (2/1)
Length of Visible Light 10h 43m
Length of Day
9h 38m
Waxing Crescent, 5% of the Moon is Illuminated
Feb 1
Waxing Crescent
Feb 6
First Quarter
Feb 14
Full
Feb 22
Last Quarter
Mar 1
New

Hourly Weather History & Observations

Time (PST) Temp. Windchill Dew Point Humidity Pressure Visibility Wind Dir Wind Speed Gust Speed Precip Events Conditions
12:23 AM 41.0 °F 39.0 °F 39.9 °F 96% 30.16 in 8.0 mi NNE 3.5 mph - N/A   Overcast
12:28 AM 41.0 °F - 39.9 °F 96% 30.16 in 8.0 mi Calm Calm - N/A   Overcast
12:53 AM 41.0 °F 36.4 °F 39.0 °F 93% 30.17 in 8.0 mi NNE 6.9 mph - N/A   Overcast
1:19 AM 41.0 °F 37.1 °F 39.0 °F 93% 30.16 in 8.0 mi NE 5.8 mph - N/A   Overcast
1:53 AM 41.0 °F 37.1 °F 39.0 °F 93% 30.17 in 6.0 mi NE 5.8 mph - N/A   Overcast
2:22 AM 41.0 °F 37.1 °F 39.0 °F 93% 30.16 in 6.0 mi NE 5.8 mph - N/A   Overcast
2:53 AM 41.0 °F 39.0 °F 39.0 °F 93% 30.17 in 7.0 mi NE 3.5 mph - N/A   Overcast
3:11 AM 39.9 °F 35.8 °F 39.0 °F 97% 30.16 in 7.0 mi NNE 5.8 mph - N/A   Overcast
3:20 AM 39.9 °F 37.8 °F 39.0 °F 97% 30.16 in 7.0 mi NE 3.5 mph - N/A   Overcast
3:53 AM 39.9 °F 36.7 °F 39.0 °F 97% 30.17 in 7.0 mi NE 4.6 mph - N/A   Overcast
4:53 AM 39.9 °F 35.1 °F 39.0 °F 97% 30.18 in 8.0 mi NNE 6.9 mph - N/A   Overcast
5:53 AM 39.9 °F 35.1 °F 39.0 °F 97% 30.17 in 8.0 mi NE 6.9 mph - 0.00 in   Overcast
6:53 AM 39.0 °F 34.0 °F 37.9 °F 96% 30.17 in 7.0 mi ENE 6.9 mph - N/A   Overcast
7:53 AM 39.9 °F 36.7 °F 39.0 °F 97% 30.17 in 6.0 mi ENE 4.6 mph - N/A   Overcast
8:12 AM 39.9 °F 34.5 °F 37.9 °F 93% 30.16 in 4.0 mi East 8.1 mph - 0.00 in Rain Light Rain
8:24 AM 39.9 °F 34.5 °F 37.9 °F 93% 30.16 in 2.5 mi East 8.1 mph - 0.01 in Rain Light Rain
8:35 AM 39.9 °F 35.8 °F 39.0 °F 97% 30.16 in 3.0 mi ENE 5.8 mph - 0.01 in Rain Light Rain
8:43 AM 39.9 °F 33.9 °F 39.0 °F 97% 30.17 in 3.0 mi East 9.2 mph - 0.01 in Rain Light Rain
8:53 AM 39.9 °F 33.4 °F 39.0 °F 97% 30.18 in 3.0 mi ENE 10.4 mph - 0.01 in Rain Light Rain
9:18 AM 39.9 °F 35.1 °F 39.9 °F 100% 30.17 in 2.5 mi ENE 6.9 mph - 0.01 in Rain Light Rain
9:33 AM 41.0 °F 35.2 °F 39.9 °F 96% 30.17 in 3.0 mi ENE 9.2 mph - 0.01 in   Overcast
9:42 AM 42.1 °F 37.7 °F 41.0 °F 96% 30.17 in 4.0 mi ENE 6.9 mph - 0.01 in   Overcast
9:53 AM 42.1 °F 36.6 °F 41.0 °F 96% 30.18 in 4.0 mi ENE 9.2 mph - 0.01 in   Overcast
10:53 AM 43.0 °F 37.7 °F 41.0 °F 93% 30.18 in 5.0 mi East 9.2 mph - N/A   Overcast
11:17 AM 43.0 °F 38.8 °F 41.0 °F 93% 30.16 in 5.0 mi ENE 6.9 mph - N/A   Overcast
11:53 AM 45.0 °F 41.2 °F 41.0 °F 86% 30.16 in 6.0 mi ENE 6.9 mph - N/A   Mostly Cloudy
12:17 PM 46.0 °F 42.5 °F 41.0 °F 83% 30.15 in 6.0 mi East 6.9 mph - N/A   Haze
12:44 PM 44.1 °F 40.1 °F 39.0 °F 82% 30.13 in 7.0 mi East 6.9 mph - N/A   Scattered Clouds
12:53 PM 44.1 °F 40.8 °F 39.0 °F 82% 30.14 in 6.0 mi East 5.8 mph - N/A   Haze
1:53 PM 46.9 °F - 37.9 °F 71% 30.13 in 7.0 mi Calm Calm - N/A   Mostly Cloudy
2:53 PM 45.0 °F 40.6 °F 39.9 °F 82% 30.12 in 4.0 mi ESE 8.1 mph - 0.00 in Rain Light Rain
3:53 PM 45.0 °F - 39.0 °F 80% 30.12 in 7.0 mi Calm Calm - 0.01 in   Overcast
4:24 PM 45.0 °F 40.6 °F 39.9 °F 82% 30.10 in 6.0 mi ESE 8.1 mph - N/A   Haze
4:53 PM 44.1 °F 40.1 °F 39.9 °F 85% 30.11 in 5.0 mi ESE 6.9 mph - 0.00 in Rain Light Rain
5:03 PM 44.1 °F 39.5 °F 39.9 °F 85% 30.09 in 4.0 mi East 8.1 mph - 0.00 in Rain Light Rain
5:53 PM 44.1 °F - 41.0 °F 89% 30.10 in 9.0 mi Calm Calm - 0.00 in   Overcast
6:53 PM 43.0 °F - 41.0 °F 93% 30.10 in 8.0 mi Calm Calm - N/A   Overcast
7:53 PM 42.1 °F - 39.9 °F 92% 30.09 in 8.0 mi Calm Calm - N/A   Overcast
8:53 PM 41.0 °F 38.0 °F 39.0 °F 93% 30.09 in 8.0 mi North 4.6 mph - N/A   Mostly Cloudy
9:53 PM 39.9 °F 35.1 °F 37.9 °F 93% 30.08 in 8.0 mi NNE 6.9 mph - N/A   Clear
10:53 PM 39.0 °F 34.0 °F 37.0 °F 93% 30.08 in 8.0 mi NNE 6.9 mph - N/A   Clear
11:53 PM 37.9 °F 33.5 °F 36.0 °F 93% 30.08 in 8.0 mi NE 5.8 mph - N/A   Clear